Location: Lichtensteig
(47.3376°N, 9.0841°E)
Time: 00:30:57
(UTC+00:00)

Cosmos 1666 - Pass Details

Date: 03 March 2021
Orbit: 497 x 518 km, 82.5° (Epoch: 14 April)

Event Time Altitude Azimuth Distance (km) Brightness Sun altitude
Rises 18:28:25 0° 169° (SSE) 2,573 6.1 -13.7°
Reaches altitude 10° 18:30:37 10° 160° (SSE) 1,696 5.1 -14.1°
Maximum altitude 18:34:03 37° 93° (E) 794 3.1 -14.7°
Drops below altitude 10° 18:37:32 10° 25° (NNE) 1,715 5.2 -15.3°
Sets 18:39:45 0° 17° (NNE) 2,607 6.2 -15.7°
